Other Public Products
Issued by NWS Grand Forks, ND

Home | Current Version | Previous Version | Graphics & Text | Print | Product List | Glossary On
Versions: 1 2 3 4 5 6 7 8 9 10 11 12 13 14 15 16 17 18 19 20 21 22 23 24 25 26 27 28 29 30 31 32 33 34 35 36 37 38 39 40 41 42 43 44 45 46 47 48 49 50
000
FPUS83 KFGF 022131
OPUFGF
PRAIRIE TO PINES WEATHER ROUNDUP
NATIONAL WEATHER SERVICE EASTERN NORTH DAKOTA/GRAND FORKS ND
400 PM CDT THU JUL 02 2015

 **SATELLITE DATA USED TO AUGMENT SKY COVER AT AUTOMATED STATIONS**
 *****  WEATHER ACROSS EASTERN NORTH DAKOTA  *****

CITY           SKY/WX    TMP DP  RH WIND       PRES   REMARKS
GRAND FORKS    PTSUNNY   80  64  58 S13       29.90F
GRAND FORKS AF PTSUNNY   78  66  66 SW8       29.90F
GRAND CITY NWS   N/A     77 N/A N/A SW13        N/A
BUXTON         NOT AVBL
DEVILS LAKE    MOSUNNY   77  63  61 NW7       29.92F
FARGO          SUNNY     78  54  43 S8        29.96S
WAHPETON ARPT  CLEAR     73  52  46 S7        29.98S
$$

 *****  WEATHER ACROSS CENTRAL AND WESTERN NORTH DAKOTA  *****

CITY           SKY/WX    TMP DP  RH WIND       PRES   REMARKS
JAMESTOWN      PTSUNNY   78  65  63 S9        29.95S
BISMARCK       MOSUNNY   79  62  56 N13       29.97S HAZE
MINOT          MOSUNNY   79  62  56 NW12      29.96F HAZE
MINOT AFB      SUNNY     83  68  60 NW14      29.95F HAZE
GARRISON         N/A     78  63  59 NW12      29.98F
WILLISTON      MOSUNNY   83  58  42 NW8G16    30.01F
DICKINSON      MOSUNNY   78  58  49 N13       30.03S HAZE
HETTINGER      MOSUNNY   77  60  55 NW10      30.05F
$$

 *****  OTHER OBSERVATIONS NORTHEAST NORTH DAKOTA  *****

CITY           SKY/WX    TMP DP  RH WIND       PRES   REMARKS
WALHALLA       FAIR      77  66  69 MISG      29.89F
LANGDON        FAIR      79  64  61 NW8       29.94R HAZE
CAVALIER       FAIR      79  66  65 NW9       29.88F HAZE
GRAFTON        MOCLDY    77  68  73 E9        29.89F
CANDO          FAIR      77  64  65 W6        29.94S
FORT TOTTEN      N/A     78  65  63 N3        29.95S
ROLLA            N/A     73  64  73 N7        29.96S
RUGBY          NOT AVBL
 ***** THE ABOVE OBSERVATIONS ARE NON NWS ARE NOT QUALITY
        CONTROLLED AND MAY MIS-REPORT RAIN FOR SNOW...
$$

 *****  OTHER OBSERVATIONS SOUTHEAST NORTH DAKOTA *****

CITY           SKY/WX    TMP DP  RH WIND       PRES   REMARKS
COOPERSTOWN    NOT AVBL
VALLEY CITY    FAIR      73  66  78 S10       29.95F
OAKES            N/A     73  66  78 S5        29.97S
GWINNER          N/A     77  54  44 S6        29.97F
SHEYENNE NWR     N/A     79  56  45 SW5       29.95S
BUFFALO        NOT AVBL
WYNDMERE       NOT AVBL
 ***** THE ABOVE OBSERVATIONS ARE NON NWS ARE NOT QUALITY
       CONTROLLED AND MAY MIS-REPORT RAIN FOR SNOW...
$$

  *****  WEATHER ACROSS NORTHERN MINNESOTA  *****

CITY           SKY/WX    TMP DP  RH WIND       PRES   REMARKS
FLAG ISLAND    MOSUNNY   73  59  60 SW8       29.88F
WARROAD        MOSUNNY   73  63  68 SW10      29.91F
ROSEAU         MOSUNNY   75  64  69 SW9       29.91F
HALLOCK        MOSUNNY   77  66  69 S12       29.88F
THF RVR FALLS  MOSUNNY   73  55  53 S13       29.94S
HALSTAD        NOT AVBL
FOSSTON        SUNNY     75  54  46 SW12      29.97S
BAUDETTE       MOSUNNY   75  53  46 SW12      29.92F
WASKISH        PTSUNNY   75  61  60 SW12      29.94F
CROOKSTON      PTSUNNY   77  59  53 SW14      29.93F
$$
  *****  WEATHER ACROSS CENTRAL AND WEST MINNESOTA  *****

CITY           SKY/WX    TMP DP  RH WIND       PRES   REMARKS
BEMIDJI        MOSUNNY   75  57  53 SW12      29.97F
PARK RAPIDS    SUNNY     77  54  44 S8        29.99F
WADENA         SUNNY     73  54  49 S7        30.00S
DETROIT LAKES  SUNNY     73  52  46 S10       30.00F
MOORHEAD       SUNNY     75  54  46 S9        29.97S
FERGUS FALLS   SUNNY     73  52  46 S9        29.98S
ELBOW LAKE     FAIR      73  49  42 S10       30.00R
MORRIS MN      MOSUNNY   75  48  38 SE6       29.99S
STAPLES        SUNNY     75  52  43 S7        30.00S
WHEATON        MOSUNNY   73  52  46 S6        30.00S
$$
  *****  WEATHER ELSEWHERE ACROSS MINNESOTA  *****

CITY           SKY/WX    TMP DP  RH WIND       PRES   REMARKS
DULUTH         PTSUNNY   76  58  53 W7        29.98F
INTRNTL FALLS  MOSUNNY   75  56  51 W9        29.93F
ELY            PTSUNNY   73  55  53 W12       29.95F
CLOQUET        MOSUNNY   75  55  50 S9        29.98F
BRAINERD       MOSUNNY   77  53  43 SW7       30.00S
HIBBING        MOSUNNY   76  56  49 VRB7      29.97F
ALEXANDRIA     MOSUNNY   73  53  49 SW12      30.02F
SAINT CLOUD    MOSUNNY   76  53  44 S7        30.00F
MINNEAPOLIS    MOSUNNY   75  53  46 SE6       30.00F
$$

  *****  WEATHER ACROSS SOUTH DAKOTA  *****

CITY           SKY/WX    TMP DP  RH WIND       PRES   REMARKS
SIOUX FALLS    CLOUDY    70  58  65 E7        30.00S
BROOKINGS      CLOUDY    70  48  46 SE6       30.02S
WATERTOWN      CLOUDY    73  49  42 S6        30.00S
HURON          CLOUDY    69  59  70 SE6       29.98F
SISSETON         N/A     75  54  47 VRB7      29.97S
ABERDEEN       MOSUNNY   71  64  78 S10       29.97F
MITCHELL       CLOUDY    69  62  78 E8        29.99S
PIERRE         MOSUNNY   77  65  66 NE9       29.96F
MOBRIDGE       MOSUNNY   78  65  63 VRB3      29.95F HAZE
RAPID CITY     SUNNY     80  56  43 NW18G29   30.07F
$$

  *****  SOME WEATHER IN NEARBY STATES *****

CITY           SKY/WX    TMP DP  RH WIND       PRES   REMARKS
GLASGOW MT     MOSUNNY   82  56  40 NW12      30.05F
GREAT FALLS MT FAIR      84  49  29 NE9       30.13F
CHEYENNE WY    SUNNY     79  51  37 NE7       30.22F
SCOTTSBLUFF NE MOSUNNY   83  55  38 N9        30.11F
OMAHA NE       CLOUDY    69  64  84 SE7       29.96R
DES MOINES IA  CLOUDY    68  49  50 SE5       29.98F
DAVENPORT IA   MOSUNNY   71  53  52 E9        29.97F
CHICAGO IL     PTSUNNY   66  53  63 NE13      29.99S
EAU CLAIRE WI  SUNNY     76  51  41 SE8       30.00F
LA CROSSE WI   SUNNY     75  54  47 S6        30.00F
$$

  *****  SOME NATIONAL WEATHER *****

CITY           SKY/WX    TMP DP  RH WIND       PRES   REMARKS
LA GUARDIA NY  CLOUDY    77  56  48 S5        29.86F
RALEIGH NC     PTSUNNY   83  67  58 SW10      29.87F
ATLANTA GA     PTSUNNY   84  68  58 W15       29.98S
NEW ORLEANS LA PTSUNNY   91  73  55 S13       30.04F HX  99
OKLAHOMA CITY  PTSUNNY   90  72  55 S12       29.89S HX  97
ALBUQUERQUE NM PTSUNNY   92  46  20 VRB3      30.06F
SALT LAKE CITY PTSUNNY   96  41  15 W12G23    30.03F HX  92
LOS ANGELES CA FAIR      73  63  70 W15       29.98F
BOISE ID       FAIR     100  41  13 NW12      29.96F HX  95
SEATTLE WA     FAIR      89  53  29 NW8G18    30.02F
$$

*** WEATHER ACROSS MANITOBA...SASKATCHEWAN AND ONTARIO ***
                ***ONTARIO***

CITY           SKY/WX    TMP DP  RH WIND       PRES   REMARKS
GERALDTON      PTSUNNY   73  52  46 W7        29.89F
THUNDER BAY    CLOUDY    64  59  82 NE3       29.93F
SIOUX LOOKOUT  LGT RAIN  64  63  94 SE5       29.87F FOG
TORONTO        MOSUNNY   72  46  40 N13       29.96S
BIG TROUT LK   SUNNY     75  57  53 S7        29.72F
PICKLE LAKE    LGT RAIN  63  59  88 SW6       29.84F
DRYDEN         SUNNY     73  54  49 W21G28    29.86F
KENORA         PTSUNNY   72  61  68 SW13G21   29.89F
$$
                *** MANITOBA***

CITY           SKY/WX    TMP DP  RH WIND       PRES   REMARKS
BRANDON        SMOKE     75  66  73 NW14      29.93R VSB 1
DAUPHIN        SUNNY     77  63  61 NW6       29.90F HAZE
ISLAND LAKE    CLOUDY    75  57  53 W3        29.73F
PILOT MOUND      N/A     75  64  69 W7          N/A
THE PAS        MOSUNNY   79  52  38 NW14G22   29.86S SMOKE
THOMPSON       PTSUNNY   77  55  47 NW9G26    29.76S
WINNIPEG       CLOUDY    77  66  69 W9        29.87F
LYNN LAKE      SUNNY     75  46  35 NW15G23   29.86S
CHURCHILL      MOSUNNY   55  50  82 NE12      29.74R
GILLAM         PTSUNNY   73  59  60 N13       29.67S
$$
                ***SASKATCHEWAN***

CITY           SKY/WX    TMP DP  RH WIND       PRES   REMARKS
ESTEVAN        CLOUDY    79  61  53 NW8       30.00F SMOKE
KINDERSLEY     MOSUNNY   79  57  47 N5        30.06F
LLOYDMINSTER   PTSUNNY   81  50  34 NW9       30.04F
PRINCE ALBERT  MOSUNNY   82  59  44 NW13      29.96F SMOKE
REGINA         CLOUDY    77  63  61 NW13      30.02F SMOKE



USA.gov is the U.S. government's official web portal to all federal, state and local government web resources and services.